ARG1815 SAVY-SABE

Flight info

Callsign ARG1815
Flight time 1h 27m
Altitude 37000
Route LOMUS2G LOMUS UT693 BCA UW22 VALOS VALOS9Q
Aircraft B38M/M-MSDFGHILORVW/SB1

Departure

Time 2026-04-24 22:54
Airport El Tehuelche Airport (SAVY)

Arrival

Time 2026-04-25 00:22
Airport Aeroparque Jorge Newbery (SABE)
Time Latitude Longitude Altitude Speed Heading
2026-04-24 22:31 -42.75554 -65.10021 440 ft 0 kts 21°
2026-04-24 22:49 -42.75547 -65.10019 443 ft 1 kts
2026-04-24 22:49 -42.75545 -65.10022 443 ft 1 kts 331°
2026-04-24 22:50 -42.75544 -65.10036 435 ft 2 kts 262°
2026-04-24 22:50 -42.75553 -65.10043 434 ft 2 kts 182°
2026-04-24 22:50 -42.75587 -65.10021 433 ft 9 kts 149°
2026-04-24 22:50 -42.75659 -65.09961 442 ft 14 kts 148°
2026-04-24 22:51 -42.75731 -65.09866 436 ft 13 kts 81°
2026-04-24 22:51 -42.75684 -65.09759 441 ft 14 kts 58°
2026-04-24 22:51 -42.75632 -65.09646 436 ft 15 kts 58°
2026-04-24 22:51 -42.75574 -65.09519 437 ft 16 kts 58°
2026-04-24 22:52 -42.75511 -65.09381 443 ft 18 kts 58°
2026-04-24 22:52 -42.75439 -65.09224 436 ft 21 kts 56°
2026-04-24 22:52 -42.75371 -65.09080 433 ft 17 kts 53°
2026-04-24 22:52 -42.75324 -65.09021 440 ft 2 kts 93°
2026-04-24 22:53 -42.75328 -65.09016 438 ft 2 kts 128°
2026-04-24 22:53 -42.75337 -65.09014 433 ft 1 kts 192°
2026-04-24 22:53 -42.75369 -65.09074 433 ft 16 kts 240°
2026-04-24 22:53 -42.75561 -65.09493 434 ft 88 kts 238°
2026-04-24 22:54 -42.76000 -65.10440 443 ft 145 kts 238°
2026-04-24 22:54 -42.76576 -65.11660 900 ft 158 kts 238°
2026-04-24 22:54 -42.77155 -65.12919 1680 ft 157 kts 238°
2026-04-24 22:54 -42.77768 -65.14257 2134 ft 179 kts 238°
2026-04-24 22:55 -42.78480 -65.15800 2568 ft 205 kts 237°
2026-04-24 22:55 -42.79267 -65.17480 3358 ft 212 kts 237°
2026-04-24 22:55 -42.79934 -65.19247 4351 ft 215 kts 252°
2026-04-24 22:55 -42.79841 -65.21298 5227 ft 225 kts 289°
2026-04-24 22:56 -42.78843 -65.22974 6242 ft 236 kts 318°
2026-04-24 22:56 -42.77435 -65.24132 7244 ft 236 kts 321°
2026-04-24 22:56 -42.76030 -65.25312 8105 ft 239 kts 321°
2026-04-24 22:56 -42.74597 -65.26503 8947 ft 246 kts 324°
2026-04-24 22:57 -42.72849 -65.27159 9465 ft 280 kts 349°
2026-04-24 22:57 -42.70838 -65.26871 10158 ft 301 kts
2026-04-24 22:57 -42.68902 -65.25556 10714 ft 327 kts 31°
2026-04-24 22:57 -42.67015 -65.23660 11086 ft 345 kts 30°
2026-04-24 22:58 -42.65013 -65.21754 11603 ft 358 kts 29°
2026-04-24 22:58 -42.62958 -65.19825 12373 ft 361 kts 29°
2026-04-24 22:58 -42.60868 -65.17878 13049 ft 368 kts 29°
2026-04-24 22:58 -42.58742 -65.15908 13809 ft 372 kts 29°
2026-04-24 22:59 -42.56589 -65.13919 14460 ft 377 kts 29°
2026-04-24 22:59 -42.54409 -65.11909 15169 ft 380 kts 28°
2026-04-24 22:59 -42.50018 -65.07864 16544 ft 388 kts 28°
2026-04-24 23:00 -42.47775 -65.05800 17217 ft 391 kts 28°
2026-04-24 23:00 -42.45513 -65.03721 17878 ft 395 kts 28°
2026-04-24 23:00 -42.43230 -65.01623 18509 ft 398 kts 27°
2026-04-24 23:00 -42.40925 -64.99508 19055 ft 402 kts 27°
2026-04-24 23:01 -42.38600 -64.97376 19597 ft 405 kts 27°
2026-04-24 23:01 -42.36256 -64.95230 20122 ft 408 kts 27°
2026-04-24 23:01 -42.33901 -64.93074 20668 ft 411 kts 27°
2026-04-24 23:01 -42.31523 -64.90899 21192 ft 414 kts 27°
2026-04-24 23:02 -42.29132 -64.88715 21706 ft 417 kts 27°
2026-04-24 23:02 -42.26717 -64.86512 22253 ft 419 kts 27°
2026-04-24 23:02 -42.24293 -64.84301 22782 ft 422 kts 27°
2026-04-24 23:02 -42.21845 -64.82071 23280 ft 426 kts 27°
2026-04-24 23:03 -42.19379 -64.79826 23764 ft 429 kts 27°
2026-04-24 23:03 -42.16890 -64.77565 24195 ft 432 kts 27°
2026-04-24 23:03 -42.14387 -64.75290 24654 ft 435 kts 27°
2026-04-24 23:03 -42.11869 -64.73006 25080 ft 437 kts 26°
2026-04-24 23:04 -42.09342 -64.70714 25533 ft 439 kts 26°
2026-04-24 23:04 -42.06800 -64.68413 25966 ft 442 kts 26°
2026-04-24 23:04 -42.04240 -64.66095 26385 ft 445 kts 26°
2026-04-24 23:04 -42.01667 -64.63770 26801 ft 447 kts 26°
2026-04-24 23:05 -41.99078 -64.61431 27214 ft 450 kts 26°
2026-04-24 23:05 -41.96472 -64.59080 27625 ft 452 kts 26°
2026-04-24 23:05 -41.93853 -64.56720 28018 ft 455 kts 26°
2026-04-24 23:05 -41.91219 -64.54349 28404 ft 457 kts 26°
2026-04-24 23:06 -41.88572 -64.51967 28786 ft 460 kts 26°
2026-04-24 23:06 -41.85909 -64.49574 29138 ft 461 kts 26°
2026-04-24 23:06 -41.83232 -64.47171 29541 ft 463 kts 26°
2026-04-24 23:06 -41.80543 -64.44759 29892 ft 466 kts 26°
2026-04-24 23:07 -41.77845 -64.42342 30236 ft 468 kts 26°
2026-04-24 23:07 -41.75162 -64.39942 30526 ft 470 kts 26°
2026-04-24 23:07 -41.72438 -64.37505 30823 ft 472 kts 26°
2026-04-24 23:07 -41.69701 -64.35061 31110 ft 475 kts 26°
2026-04-24 23:08 -41.66944 -64.32601 31380 ft 477 kts 26°
2026-04-24 23:08 -41.64173 -64.30131 31665 ft 479 kts 26°
2026-04-24 23:08 -41.61399 -64.27661 31920 ft 481 kts 26°
2026-04-24 23:08 -41.58600 -64.25172 32187 ft 484 kts 26°
2026-04-24 23:09 -41.55794 -64.22678 32460 ft 486 kts 26°
2026-04-24 23:09 -41.52973 -64.20176 32728 ft 488 kts 26°
2026-04-24 23:09 -41.50136 -64.17659 32985 ft 490 kts 26°
2026-04-24 23:09 -41.47290 -64.15139 33249 ft 492 kts 26°
2026-04-24 23:10 -41.44430 -64.12608 33547 ft 493 kts 26°
2026-04-24 23:10 -41.41572 -64.10082 33918 ft 493 kts 25°
2026-04-24 23:10 -41.38711 -64.07554 34215 ft 492 kts 26°
2026-04-24 23:10 -41.35857 -64.05036 34461 ft 493 kts 26°
2026-04-24 23:11 -41.32992 -64.02512 34712 ft 493 kts 26°
2026-04-24 23:11 -41.30136 -63.99998 35061 ft 492 kts 26°
2026-04-24 23:11 -41.27282 -63.97489 35382 ft 491 kts 26°
2026-04-24 23:11 -41.24441 -63.94995 35703 ft 490 kts 26°
2026-04-24 23:12 -41.21599 -63.92500 36021 ft 488 kts 26°
2026-04-24 23:12 -41.18768 -63.90020 36326 ft 487 kts 26°
2026-04-24 23:12 -41.15977 -63.87576 36616 ft 486 kts 26°
2026-04-24 23:12 -41.13118 -63.85077 36892 ft 485 kts 26°
2026-04-24 23:13 -41.10306 -63.82620 37128 ft 484 kts 26°
2026-04-24 23:13 -41.04738 -63.77764 37089 ft 481 kts 26°
2026-04-24 23:14 -40.99113 -63.72870 37074 ft 488 kts 26°
2026-04-24 23:14 -40.93411 -63.67918 37094 ft 491 kts 26°
2026-04-24 23:15 -40.87530 -63.63500 37092 ft 485 kts 21°
2026-04-24 23:15 -40.81577 -63.59245 37086 ft 486 kts 21°
2026-04-24 23:16 -40.76642 -63.55685 37097 ft 486 kts 21°
2026-04-24 23:16 -40.70704 -63.51404 37094 ft 486 kts 21°
2026-04-24 23:17 -40.64727 -63.47104 37065 ft 486 kts 21°
2026-04-24 23:17 -40.58840 -63.42879 37076 ft 485 kts 21°
2026-04-24 23:18 -40.52927 -63.38642 37086 ft 484 kts 21°
2026-04-24 23:18 -40.47015 -63.34415 37089 ft 484 kts 21°
2026-04-24 23:19 -40.41106 -63.30199 37055 ft 483 kts 21°
2026-04-24 23:19 -40.35200 -63.25993 37087 ft 482 kts 21°
2026-04-24 23:20 -40.29301 -63.21801 37088 ft 482 kts 21°
2026-04-24 23:20 -40.23403 -63.17618 37085 ft 482 kts 21°
2026-04-24 23:21 -40.17505 -63.13443 37061 ft 482 kts 21°
2026-04-24 23:21 -40.11621 -63.09286 37093 ft 480 kts 21°
2026-04-24 23:22 -40.05753 -63.05149 37082 ft 479 kts 21°
2026-04-24 23:22 -39.99882 -63.01018 37076 ft 479 kts 21°
2026-04-24 23:23 -39.94014 -62.96897 37088 ft 479 kts 21°
2026-04-24 23:23 -39.88142 -62.92781 37082 ft 479 kts 21°
2026-04-24 23:24 -39.82303 -62.88698 37072 ft 479 kts 21°
2026-04-24 23:24 -39.76432 -62.84598 37072 ft 479 kts 21°
2026-04-24 23:25 -39.70556 -62.80504 37079 ft 478 kts 21°
2026-04-24 23:25 -39.64692 -62.76426 37069 ft 478 kts 21°
2026-04-24 23:26 -39.58817 -62.72346 37074 ft 478 kts 21°
2026-04-24 23:26 -39.52947 -62.68279 37071 ft 478 kts 21°
2026-04-24 23:27 -39.47034 -62.64369 37068 ft 477 kts 20°
2026-04-24 23:27 -39.41109 -62.60500 37063 ft 478 kts 20°
2026-04-24 23:28 -39.35173 -62.56625 37066 ft 478 kts 20°
2026-04-24 23:28 -39.29241 -62.52760 37060 ft 478 kts 20°
2026-04-24 23:29 -39.23302 -62.48897 37059 ft 478 kts 19°
2026-04-24 23:29 -39.17398 -62.45064 37061 ft 478 kts 19°
2026-04-24 23:30 -39.11459 -62.41217 37055 ft 478 kts 19°
2026-04-24 23:30 -39.05520 -62.37376 37059 ft 478 kts 19°
2026-04-24 23:31 -38.99578 -62.33541 37062 ft 477 kts 19°
2026-04-24 23:31 -38.93634 -62.29712 37051 ft 477 kts 19°
2026-04-24 23:32 -38.87713 -62.25904 37070 ft 476 kts 19°
2026-04-24 23:32 -38.81795 -62.22105 37056 ft 476 kts 19°
2026-04-24 23:33 -38.75871 -62.18310 37076 ft 476 kts 19°
2026-04-24 23:33 -38.70103 -62.14105 37072 ft 484 kts 29°
2026-04-24 23:34 -38.64631 -62.09130 37049 ft 485 kts 28°
2026-04-24 23:34 -38.59125 -62.04139 37057 ft 485 kts 28°
2026-04-24 23:35 -38.53614 -61.99148 37056 ft 485 kts 28°
2026-04-24 23:35 -38.48103 -61.94167 37059 ft 485 kts 28°
2026-04-24 23:36 -38.42598 -61.89201 37036 ft 485 kts 28°
2026-04-24 23:36 -38.37080 -61.84232 37061 ft 485 kts 28°
2026-04-24 23:37 -38.31565 -61.79276 37062 ft 485 kts 27°
2026-04-24 23:37 -38.23287 -61.71855 37062 ft 485 kts 27°
2026-04-24 23:38 -38.17766 -61.66917 37024 ft 485 kts 27°
2026-04-24 23:38 -38.12270 -61.62010 37068 ft 487 kts 28°
2026-04-24 23:39 -38.06728 -61.57072 37062 ft 486 kts 27°
2026-04-24 23:39 -38.01188 -61.52143 37064 ft 486 kts 27°
2026-04-24 23:40 -37.95639 -61.47219 37060 ft 486 kts 27°
2026-04-24 23:40 -37.90087 -61.42303 37031 ft 486 kts 27°
2026-04-24 23:41 -37.84569 -61.37426 37056 ft 488 kts 27°
2026-04-24 23:41 -37.79006 -61.32518 37031 ft 487 kts 27°
2026-04-24 23:42 -37.73442 -61.27618 37050 ft 488 kts 27°
2026-04-24 23:42 -37.67873 -61.22723 37050 ft 487 kts 27°
2026-04-24 23:43 -37.62305 -61.17838 37015 ft 487 kts 27°
2026-04-24 23:43 -37.56732 -61.12957 37046 ft 488 kts 27°
2026-04-24 23:44 -37.51152 -61.08080 37045 ft 488 kts 27°
2026-04-24 23:44 -37.45573 -61.03212 37032 ft 488 kts 27°
2026-04-24 23:45 -37.40030 -60.98385 37042 ft 488 kts 27°
2026-04-24 23:45 -37.34448 -60.93533 37042 ft 488 kts 27°
2026-04-24 23:46 -37.28865 -60.88689 37045 ft 488 kts 27°
2026-04-24 23:46 -37.23291 -60.83862 37042 ft 488 kts 27°
2026-04-24 23:47 -37.17706 -60.79033 37042 ft 487 kts 27°
2026-04-24 23:47 -37.12122 -60.74215 37032 ft 487 kts 27°
2026-04-24 23:48 -37.06530 -60.69400 37020 ft 488 kts 27°
2026-04-24 23:48 -37.00966 -60.64614 37037 ft 489 kts 27°
2026-04-24 23:49 -36.95353 -60.59797 37043 ft 489 kts 27°
2026-04-24 23:49 -36.89741 -60.54990 37040 ft 489 kts 27°
2026-04-24 23:50 -36.84126 -60.50188 37044 ft 489 kts 26°
2026-04-24 23:50 -36.78509 -60.45393 37008 ft 489 kts 26°
2026-04-24 23:51 -36.72877 -60.40594 37044 ft 491 kts 26°
2026-04-24 23:51 -36.67243 -60.35804 37038 ft 490 kts 26°
2026-04-24 23:52 -36.61598 -60.31012 37039 ft 490 kts 26°
2026-04-24 23:52 -36.55996 -60.26265 37040 ft 490 kts 26°
2026-04-24 23:53 -36.50351 -60.21503 37026 ft 490 kts 26°
2026-04-24 23:53 -36.44694 -60.16755 37012 ft 491 kts 26°
2026-04-24 23:54 -36.39027 -60.12006 37046 ft 491 kts 26°
2026-04-24 23:54 -36.33357 -60.07263 37041 ft 491 kts 26°
2026-04-24 23:55 -36.27695 -60.02535 37016 ft 488 kts 26°
2026-04-24 23:55 -36.24909 -60.00209 36553 ft 480 kts 26°
2026-04-24 23:55 -36.22125 -59.97891 35914 ft 479 kts 26°
2026-04-24 23:56 -36.19367 -59.95595 35293 ft 477 kts 26°
2026-04-24 23:56 -36.16614 -59.93306 34696 ft 475 kts 26°
2026-04-24 23:56 -36.13885 -59.91037 34176 ft 472 kts 26°
2026-04-24 23:56 -36.11169 -59.88783 33607 ft 468 kts 26°
2026-04-24 23:57 -36.08516 -59.86580 33043 ft 464 kts 26°
2026-04-24 23:57 -36.05851 -59.84373 32542 ft 459 kts 26°
2026-04-24 23:57 -36.03218 -59.82191 32058 ft 454 kts 26°
2026-04-24 23:57 -36.00569 -59.79999 31556 ft 450 kts 26°
2026-04-24 23:58 -35.98016 -59.77888 31062 ft 446 kts 26°
2026-04-24 23:58 -35.95450 -59.75767 30545 ft 443 kts 26°
2026-04-24 23:58 -35.92900 -59.73662 30068 ft 439 kts 27°
2026-04-24 23:58 -35.90368 -59.71574 29520 ft 436 kts 27°
2026-04-24 23:59 -35.87861 -59.69507 29038 ft 431 kts 27°
2026-04-24 23:59 -35.85376 -59.67461 28581 ft 427 kts 27°
2026-04-24 23:59 -35.82918 -59.65438 28127 ft 422 kts 27°
2026-04-24 23:59 -35.80489 -59.63440 27680 ft 418 kts 27°
2026-04-25 00:00 -35.78078 -59.61458 27240 ft 415 kts 27°
2026-04-25 00:00 -35.75688 -59.59496 26807 ft 411 kts 27°
2026-04-25 00:00 -35.73322 -59.57554 26388 ft 407 kts 27°
2026-04-25 00:00 -35.70970 -59.55626 25975 ft 404 kts 27°
2026-04-25 00:01 -35.68637 -59.53713 25542 ft 401 kts 27°
2026-04-25 00:01 -35.66323 -59.51819 25148 ft 398 kts 27°
2026-04-25 00:01 -35.64024 -59.49937 24758 ft 395 kts 27°
2026-04-25 00:01 -35.61742 -59.48072 24371 ft 393 kts 27°
2026-04-25 00:02 -35.59512 -59.46250 23992 ft 390 kts 27°
2026-04-25 00:02 -35.57229 -59.44386 23597 ft 388 kts 27°
2026-04-25 00:02 -35.54986 -59.42555 23158 ft 386 kts 27°
2026-04-25 00:02 -35.52788 -59.40762 22767 ft 383 kts 27°
2026-04-25 00:03 -35.50585 -59.38966 22394 ft 379 kts 27°
2026-04-25 00:03 -35.48398 -59.37184 22031 ft 375 kts 27°
2026-04-25 00:03 -35.46235 -59.35428 21666 ft 371 kts 26°
2026-04-25 00:03 -35.44037 -59.33789 21252 ft 368 kts 25°
2026-04-25 00:04 -35.41868 -59.32178 20913 ft 365 kts 25°
2026-04-25 00:04 -35.39724 -59.30578 20559 ft 361 kts 26°
2026-04-25 00:04 -35.37595 -59.28987 20225 ft 358 kts 26°
2026-04-25 00:04 -35.35486 -59.27411 19887 ft 355 kts 26°
2026-04-25 00:05 -35.33384 -59.25841 19542 ft 352 kts 26°
2026-04-25 00:05 -35.31996 -59.24805 19316 ft 351 kts 26°
2026-04-25 00:05 -35.29220 -59.22734 18861 ft 348 kts 26°
2026-04-25 00:05 -35.27855 -59.21716 18638 ft 346 kts 26°
2026-04-25 00:06 -35.25806 -59.20188 18297 ft 344 kts 26°
2026-04-25 00:06 -35.23764 -59.18667 17920 ft 342 kts 26°
2026-04-25 00:06 -35.21742 -59.17161 17570 ft 339 kts 26°
2026-04-25 00:06 -35.19710 -59.15714 17193 ft 335 kts 21°
2026-04-25 00:07 -35.17642 -59.14460 16875 ft 331 kts 22°
2026-04-25 00:07 -35.15598 -59.13206 16561 ft 328 kts 22°
2026-04-25 00:07 -35.13573 -59.11953 16226 ft 325 kts 22°
2026-04-25 00:07 -35.11562 -59.10703 15910 ft 322 kts 22°
2026-04-25 00:08 -35.09571 -59.09464 15594 ft 320 kts 23°
2026-04-25 00:08 -35.07596 -59.08236 15281 ft 319 kts 23°
2026-04-25 00:08 -35.05605 -59.06997 14948 ft 323 kts 23°
2026-04-25 00:08 -35.03590 -59.05744 14626 ft 327 kts 23°
2026-04-25 00:09 -35.01563 -59.04483 14351 ft 325 kts 24°
2026-04-25 00:09 -34.99583 -59.03254 14293 ft 313 kts 24°
2026-04-25 00:09 -34.97673 -59.02067 14222 ft 305 kts 24°
2026-04-25 00:09 -34.95749 -59.00874 14022 ft 316 kts 24°
2026-04-25 00:10 -34.93771 -58.99647 13690 ft 321 kts 24°
2026-04-25 00:10 -34.91778 -58.98411 13333 ft 321 kts 24°
2026-04-25 00:10 -34.89779 -58.97267 12969 ft 319 kts 21°
2026-04-25 00:10 -34.87758 -58.96171 12626 ft 317 kts 21°
2026-04-25 00:11 -34.85756 -58.95078 12304 ft 314 kts 22°
2026-04-25 00:11 -34.83772 -58.93991 11993 ft 311 kts 22°
2026-04-25 00:11 -34.81808 -58.92914 11679 ft 309 kts 22°
2026-04-25 00:11 -34.79857 -58.91845 11343 ft 307 kts 22°
2026-04-25 00:12 -34.77901 -58.90773 10787 ft 310 kts 22°
2026-04-25 00:12 -34.75937 -58.89699 10211 ft 308 kts 22°
2026-04-25 00:12 -34.73990 -58.88643 9637 ft 306 kts 22°
2026-04-25 00:12 -34.72041 -58.87586 8830 ft 310 kts 22°
2026-04-25 00:13 -34.70043 -58.86503 7898 ft 318 kts 22°
2026-04-25 00:13 -34.68036 -58.85415 7002 ft 323 kts 22°
2026-04-25 00:13 -34.65942 -58.84281 6097 ft 326 kts 22°
2026-04-25 00:13 -34.63867 -58.83158 5414 ft 321 kts 22°
2026-04-25 00:14 -34.61939 -58.82115 5434 ft 294 kts 22°
2026-04-25 00:14 -34.60152 -58.81148 5442 ft 270 kts 22°
2026-04-25 00:14 -34.58487 -58.80248 5310 ft 255 kts 22°
2026-04-25 00:14 -34.56927 -58.79341 5094 ft 247 kts 32°
2026-04-25 00:15 -34.55757 -58.77844 4848 ft 245 kts 55°
2026-04-25 00:15 -34.54834 -58.76168 4651 ft 240 kts 54°
2026-04-25 00:15 -34.53917 -58.74483 4463 ft 235 kts 55°
2026-04-25 00:15 -34.53035 -58.72846 4273 ft 230 kts 55°
2026-04-25 00:16 -34.52172 -58.71231 4050 ft 227 kts 55°
2026-04-25 00:16 -34.51327 -58.69642 3851 ft 222 kts 55°
2026-04-25 00:16 -34.50498 -58.68079 3673 ft 217 kts 55°
2026-04-25 00:16 -34.49695 -58.66562 3520 ft 214 kts 55°
2026-04-25 00:17 -34.48884 -58.65027 3401 ft 217 kts 55°
2026-04-25 00:17 -34.48068 -58.63484 3271 ft 216 kts 55°
2026-04-25 00:17 -34.47273 -58.61981 3167 ft 208 kts 55°
2026-04-25 00:17 -34.46586 -58.60470 3013 ft 203 kts 72°
2026-04-25 00:18 -34.46585 -58.58832 2955 ft 191 kts 105°
2026-04-25 00:18 -34.47158 -58.57435 2873 ft 184 kts 119°
2026-04-25 00:18 -34.47841 -58.56150 2646 ft 183 kts 121°
2026-04-25 00:18 -34.48537 -58.54886 2424 ft 175 kts 121°
2026-04-25 00:19 -34.49195 -58.53700 2221 ft 164 kts 121°
2026-04-25 00:19 -34.49773 -58.52679 1985 ft 159 kts 121°
2026-04-25 00:19 -34.50390 -58.51555 1775 ft 158 kts 121°
2026-04-25 00:19 -34.50999 -58.50455 1570 ft 157 kts 121°
2026-04-25 00:20 -34.51603 -58.49356 1383 ft 156 kts 121°
2026-04-25 00:20 -34.52187 -58.48279 1180 ft 155 kts 121°
2026-04-25 00:20 -34.52792 -58.47196 963 ft 151 kts 123°
2026-04-25 00:20 -34.53362 -58.46163 787 ft 147 kts 123°
2026-04-25 00:21 -34.53923 -58.45142 586 ft 143 kts 123°
2026-04-25 00:21 -34.54480 -58.44152 368 ft 141 kts 124°
2026-04-25 00:21 -34.55038 -58.43159 173 ft 142 kts 124°
2026-04-25 00:21 -34.55584 -58.42179 31 ft 133 kts 124°
2026-04-25 00:22 -34.55996 -58.41450 27 ft 73 kts 124°
2026-04-25 00:22 -34.56167 -58.41145 29 ft 15 kts 124°
2026-04-25 00:22 -34.56183 -58.41043 28 ft 5 kts 59°
2026-04-25 00:22 -34.56165 -58.41008 28 ft 5 kts 59°
2026-04-25 00:23 -34.56134 -58.40987 28 ft 6 kts 347°
2026-04-25 00:23 -34.56097 -58.41025 28 ft 5 kts 307°
2026-04-25 00:23 -34.56068 -58.41071 28 ft 8 kts 307°
2026-04-25 00:23 -34.56032 -58.41129 28 ft 7 kts 308°
2026-04-25 00:24 -34.55996 -58.41186 28 ft 10 kts 307°
2026-04-25 00:24 -34.55954 -58.41252 28 ft 8 kts 307°
2026-04-25 00:24 -34.55909 -58.41303 28 ft 10 kts 349°
2026-04-25 00:24 -34.55867 -58.41284 28 ft 6 kts 23°
2026-04-25 00:25 -34.55825 -58.41306 28 ft 8 kts 302°
2026-04-25 00:25 -34.55798 -58.41356 28 ft 8 kts 304°
2026-04-25 00:25 -34.55770 -58.41405 28 ft 7 kts 304°
2026-04-25 00:25 -34.55754 -58.41423 28 ft 2 kts 352°
2026-04-25 00:26 -34.55735 -58.41416 28 ft 3 kts 26°
2026-04-25 00:26 -34.55723 -58.41407 28 ft 0 kts 31°